Location: Champau
(46.9484°N, 0.2431°E)
Time: 15:56:40
(UTC+00:00)

Daily predictions for brighter satellites

Satellite Brightness Start Highest point End
(mag) Time Altitude Azimuth Time Altitude Azimuth Time Altitude Azimuth
Atlas Centaur 2 4.2 20:20:52 10° SW 20:26:58 24° S 20:33:10 10° SE
Cosmos 2082 Rocket 2.3 20:22:11 10° SSW 20:27:55 87° ESE 20:33:39 10° NNE
IRIDIUM 106 4.4 20:24:38 10° N 20:29:54 85° E 20:35:07 10° S
IRS-1A Rocket 4.5 20:24:43 10° SSE 20:30:06 59° ENE 20:35:32 10° N
Ariane Rocket 3.9 20:25:59 10° SE 20:30:32 34° ENE 20:35:07 10° N
IRS-1C Rocket 4.2 20:29:09 10° SSE 20:34:21 66° ENE 20:39:35 10° N
RESURS DK-1 3.9 20:31:46 10° N 20:35:10 24° NE 20:38:32 10° ESE
Okean O Rocket 2.9 20:31:57 10° SSW 20:36:05 39° W 20:40:13 10° NNW
Cosmos 2251 Rocket 4.0 20:31:02 10° SSW 20:36:18 68° WNW 20:41:38 10° NNE
Tiangong -0.7 20:34:19 10° WSW 20:36:55 23° SSW 20:39:31 10° SE
ARGOS Delta rocket 3.7 20:33:19 10° SSE 20:37:47 71° ENE 20:42:11 10° N
Cosmos 1470 Rocket 4.0 20:33:49 10° NNW 20:38:09 64° W 20:42:25 10° S
Cosmos 1869 Rocket 4.2 20:36:44 10° N 20:40:59 43° ENE 20:45:14 10° SSE
KORONAS-FOTON 3.7 20:38:42 10° S 20:42:24 83° E 20:46:10 10° N
Terra 2.2 20:40:07 10° SE 20:44:40 51° ENE 20:49:14 10° N
SPOT 3 Rocket 4.2 20:41:08 10° SE 20:45:57 42° ENE 20:50:48 10° N
Cosmos 1842 3.2 20:43:13 10° SSW 20:46:52 80° W 20:50:33 10° N
Genesis I 4.4 20:48:00 10° WSW 20:51:21 42° NW 20:54:46 10° NNE
EXPRESS MD2 2.1 20:48:42 10° WSW 20:51:49 66° SSE 20:54:04 10° ENE
Cosmos 540 Rocket 3.6 20:47:35 10° NNW 20:52:46 78° WSW 20:57:52 10° SSE
Cosmos 1758 4.5 20:54:43 10° NNE 20:58:08 28° ENE 21:01:09 12° SE
MetOp-B 4.4 20:53:27 10° S 20:58:46 69° WSW 21:04:08 10° NNW
Cosmos 1933 Rocket 3.9 20:58:00 10° NNW 21:02:24 70° W 21:06:49 10° S
Cosmos 1954 Rocket 4.1 20:57:31 10° SSW 21:02:49 86° WNW 21:08:08 10° NNE
Resurs 01 Rocket 4.2 21:00:00 10° SW 21:02:59 18° W 21:06:00 10° NW
Landsat 4 3.8 21:00:47 13° SSE 21:03:46 51° ENE 21:07:07 10° N
COSMOS 2406 3.8 20:58:29 10° SW 21:04:12 64° WNW 21:09:55 10° NNE
CZ-4C R/B 4.1 21:01:41 10° N 21:05:45 58° WNW 21:09:48 10° SSW
Cosmos 1980 Rocket 3.8 21:01:46 10° NW 21:06:39 30° WSW 21:11:29 10° SSW
Cosmos 2322 Rocket 2.7 21:02:06 10° NNW 21:07:38 50° ENE 21:12:36 13° SE
Cosmos 1356 Rocket 4.5 21:06:07 13° SSE 21:09:12 29° E 21:12:51 10° NNE
SeaSat 1 2.7 21:07:46 11° SSE 21:12:29 66° WSW 21:17:25 10° NNW
Meteor 1-13 Rocket 4.3 21:06:48 10° S 21:12:38 86° E 21:18:21 10° NNE
Cosmos 676 Rocket 4.1 21:07:37 10° SSW 21:12:57 86° WNW 21:18:18 10° NNE
Cosmos 1707 3.6 21:12:24 10° SSW 21:15:53 45° WNW 21:19:23 10° N
Cosmos 2278 3.9 21:12:10 10° NNW 21:17:53 75° WSW 21:22:56 13° SSE
MOS 1 Rocket 3.6 21:14:17 12° SSE 21:19:25 85° ENE 21:24:45 10° NNW
USA 234 3.3 21:17:40 10° NE 21:24:15 90° WSW 21:30:47 10° SW
Cosmos 1400 Rocket 2.6 21:22:01 10° S 21:25:55 80° E 21:29:47 10° NNE
SL-4 R/B 3.1 21:23:21 10° W 21:27:03 44° N 21:31:00 10° ENE
Helios 1B 4.5 21:22:57 10° NNE 21:27:17 78° ESE 21:31:35 10° S
Cosmos 1455 4.3 21:26:03 10° NE 21:27:51 13° ENE 21:29:35 10° E
Cosmos 2237 4.5 21:25:39 10° NNW 21:31:21 67° WSW 21:36:03 15° SSE
Meteor 2-10 Rocket 3.6 21:26:14 10° N 21:31:53 82° ENE 21:36:16 16° SSE
Cosmos 2219 Rocket 3.3 21:29:40 10° NNW 21:34:53 36° NE 21:39:27 13° ESE
SPOT 5 4.4 21:31:15 10° SSW 21:34:55 27° W 21:38:40 10° NW
Cosmos 1707 Rocket 3.8 21:31:38 16° SSE 21:35:01 54° E 21:39:23 10° NNE
Landsat 5 3.6 21:31:15 10° NNE 21:35:11 51° E 21:38:05 17° S
ERS-1 Rocket 3.8 21:32:20 10° S 21:37:09 46° W 21:42:00 10° NNW
Cosmos 841 Rocket 3.6 21:31:55 10° NNW 21:37:12 74° WSW 21:41:16 17° SSE
ATLAS CENTAUR R/B 1.4 21:35:13 16° S 21:37:41 39° ESE 21:41:03 10° NE
Cosmos 1315 Rocket 4.2 21:39:54 19° ESE 21:41:23 23° E 21:44:35 10° NE
SJ 16-02 2.2 21:39:29 21° SSE 21:41:32 31° ESE 21:45:21 10° NE
ARIANE 5 R/B 4.1 21:39:26 14° ESE 21:42:06 25° ENE 21:45:39 10° N
Meteor 1-4 Rocket 3.4 21:41:42 22° ESE 21:42:17 24° E 21:44:46 10° NE
SL-27 R/B 2.3 21:41:51 30° SSE 21:42:40 40° ESE 21:45:19 10° NE
Okean 3 3.9 21:41:42 21° SSE 21:44:02 43° E 21:48:00 10° NNE
Spot 2 Rocket 4.1 21:40:09 12° S 21:44:42 53° W 21:49:41 10° NNW
Cosmos 1953 3.7 21:42:30 10° NNE 21:45:44 25° ENE 21:47:31 18° ESE
S3M 4.5 21:42:37 10° NNW 21:48:54 60° W 21:54:50 11° S
Aureole 3 3.6 21:49:38 24° SSE 21:51:44 53° E 21:56:15 10° NNE
Cosmos 1300 2.7 21:51:27 10° NNW 21:55:00 66° W 21:57:03 23° S
Meteor 1-23 Rocket 4.5 21:50:26 10° SSW 21:56:04 71° WNW 22:01:49 10° N
Cosmos 1733 Rocket 3.0 21:52:17 10° N 21:56:43 85° W 21:59:30 22° S
Spot 1 4.2 21:52:34 10° NNE 21:57:04 89° WNW 22:01:14 13° SSW
Cosmos 1655 Rocket 4.2 21:51:36 10° SSW 21:58:00 79° W 22:04:27 10° N
Cosmos 2360 Rocket 2.2 21:53:07 10° NNW 21:58:50 90° NE 22:02:32 23° SSE
H-2A R/B 4.2 21:59:14 15° ESE 22:01:38 23° ENE 22:05:01 10° NNE
Cosmos 839 Rocket 4.3 21:55:11 10° NNW 22:02:14 68° NE 22:06:44 20° SE
GP-B 4.1 21:58:41 10° NNE 22:02:37 31° E 22:04:27 23° SE
ATLAS 2AS CENTAUR R/B 2.6 22:00:07 10° NW 22:07:00 89° SW 22:11:32 22° SE
Cosmos 2333 Rocket 2.2 22:01:43 10° NNW 22:07:31 85° WSW 22:11:07 24° SSE
SL-16 R/B 3.1 22:02:31 10° NW 22:07:47 40° WSW 22:11:42 17° SSW
SL-14 R/B 3.9 22:04:47 14° SSW 22:07:54 51° WNW 22:11:38 10° N
Cosmos 1908 Rocket 4.2 22:04:57 10° N 22:09:07 43° ENE 22:11:05 26° SE
Ariane Rocket 4.2 22:05:08 12° SSW 22:09:26 34° W 22:14:06 10° NNW
Cosmos 2228 Rocket 3.6 22:05:36 13° SSW 22:09:37 60° WNW 22:14:09 10° N
MetOp-A 4.2 22:07:04 21° S 22:10:33 69° WSW 22:15:49 10° NNW
BREEZE-M DEB (TANK) 3.3 22:09:38 10° W 22:12:12 69° N 22:18:21 10° ENE
RESURS DK-1 3.3 22:09:12 10° NW 22:13:00 38° WSW 22:14:58 23° SSW
Atlas Centaur 2 4.1 22:09:11 10° WSW 22:15:03 21° SSW 22:16:48 20° S
Okean 1-7 3.1 22:13:21 29° SSE 22:15:24 59° E 22:19:40 10° NNE
Cosmos 1346 Rocket 3.6 22:15:43 10° NNW 22:19:23 43° W 22:21:26 22° SSW
Cosmos 1833 4.1 22:16:37 13° SSW 22:21:42 83° ESE 22:27:22 10° NNE
Cosmos 1244 Rocket 4.5 22:17:42 21° S 22:22:00 78° E 22:28:20 10° N
BlueWalker 3 4.2 22:24:28 12° E 22:24:28 12° E 22:24:54 10° E
Cosmos 1408 4.5 22:22:39 12° E 22:22:39 12° E 22:23:46 10° ENE
BREEZE-M DEB (TANK) 3.9 22:16:58 10° W 22:22:23 35° NNW 22:24:43 10° NE
Terra 3.9 22:19:04 10° SW 22:22:32 20° W 22:26:01 10° NW
Cosmos 1242 Rocket 3.1 22:23:20 28° E 22:23:20 28° E 22:25:31 10° NNE
MINOTAUR 4 R/B 4.2 22:23:28 10° NNE 22:26:10 37° E 22:26:10 37° E
Meteor 1-16 Rocket 4.5 22:25:31 10° NNW 22:31:26 72° W 22:35:01 25° S
Cosmos 2237 Rocket 4.1 22:27:31 10° N 22:31:58 23° NE 22:36:22 10° E
Cosmos 2322 4.1 22:27:10 10° NNW 22:32:45 55° ENE 22:36:10 23° SE
USA 281 3.2 22:28:55 25° SSE 22:33:03 88° ENE 22:39:41 10° NNW
ALOS 2 3.9 22:32:43 20° ESE 22:34:48 30° ENE 22:38:37 10° N
Cosmos 2333 4.4 22:32:56 10° NNW 22:38:39 64° WSW 22:41:39 29° S
OPS 8737 3.9 22:35:51 10° NW 22:38:47 84° SW 22:39:12 63° SSE
CZ-3 Stage 3 4.4 22:03:42 10° W 22:39:04 41° SSW 22:45:18 23° SSE
CZ-2C R/B 3.5 22:37:03 10° NNE 22:41:29 89° E 22:43:37 31° SSW
CZ-4C R/B 3.4 22:42:24 18° ESE 22:42:25 18° ESE 22:45:50 10° ENE
Cosmos 968 Rocket 4.1 22:39:24 10° SW 22:44:26 53° WNW 22:49:32 10° NNE
Cosmos 1703 Rocket 3.5 22:48:43 35° S 22:50:36 90° SW 22:55:05 10° N
Spot 4 4.1 22:49:10 32° SE 22:51:15 61° ENE 22:56:00 10° N
Cosmos 2322 Rocket 3.5 22:46:36 10° NW 22:51:25 29° WSW 22:54:24 18° SSW
SL-08 R/B 4.5 22:48:53 24° SSW 22:52:45 80° W 22:58:53 10° N
Cosmos 158 Rocket 4.4 22:50:23 10° NNW 22:55:39 58° ENE 22:58:13 29° SE
Okean 2 4.0 22:54:53 26° SW 22:56:47 49° WNW 23:00:42 10° N
DNEPR-1 R/B 4.4 22:50:23 10° NW 22:56:58 67° WSW 22:59:29 33° SSE
Cosmos 2242 Rocket 4.3 22:57:30 34° SE 22:58:48 42° E 23:03:06 10° NNE
Cosmos 2297 Rocket 3.5 22:57:54 22° ESE 22:59:13 24° ESE 23:03:38 10° NE
EXPRESS MD2 3.4 22:57:14 10° WNW 22:59:20 36° N 22:59:33 35° NNE
PSLV R/B 3.9 22:57:01 10° N 23:01:00 76° WNW 23:02:28 38° SSW
Cosmos 1455 2.7 22:59:11 10° NNW 23:02:32 43° W 23:03:18 36° SW
Cosmos 2208 Rocket 4.1 22:58:23 10° NNW 23:03:36 71° ENE 23:05:55 33° SE
SL-4 R/B 2.9 23:02:24 10° WNW 23:06:19 50° NNE 23:10:28 10° E
USA 234 4.4 23:00:47 10° NE 23:06:55 45° NNW 23:13:03 10° W
COSMOS 2428 2.7 23:07:20 10° NNW 23:13:04 87° ENE 23:15:45 33° SSE
CENTAUR R/B 4.2 23:12:45 12° ESE 23:13:45 13° E 23:16:14 10° ENE
COSMOS 2455 3.2 23:12:16 33° SSE 23:14:25 47° ESE 23:20:09 10° NE
ATLAS CENTAUR R/B 3.4 23:12:36 10° W 23:15:28 23° NW 23:18:24 10° NNE
GENESIS II 3.8 23:14:53 59° SSW 23:15:29 81° SE 23:19:08 10° NE
Cosmos 1315 Rocket 4.4 23:15:10 18° WSW 23:17:23 30° WNW 23:20:57 10° N
ARIANE 5 R/B 3.6 23:16:54 28° SW 23:18:21 36° W 23:22:21 10° NNW
Cosmos 2219 Rocket 2.9 23:13:35 10° NW 23:18:54 43° WSW 23:21:08 29° SSW
SJ 16-02 3.0 23:16:10 10° WSW 23:19:52 28° WNW 23:23:39 10° N
Cosmos 1953 3.8 23:18:18 10° NNW 23:21:29 25° W 23:22:38 22° WSW
NOSS 8 (F) 4.4 23:22:40 62° SSE 23:22:56 65° SE 23:26:06 10° NE
Cosmos 304 Rocket 4.1 23:31:07 40° SSE 23:32:15 49° ESE 23:36:51 10° NNE
PSLV R/B 3.8 23:28:09 10° NNE 23:32:17 50° E 23:33:06 43° SE
Cosmos 1745 Rocket 4.3 23:30:01 27° SSW 23:33:38 65° WNW 23:39:59 10° N
H-2A R/B 3.3 23:35:13 33° SW 23:36:20 40° W 23:40:23 10° NNW
Cosmos 2360 Rocket 4.2 23:38:59 10° WNW 23:41:59 15° W 23:44:17 12° WSW
Cosmos 1486 Rocket 3.9 23:41:55 38° SSW 23:44:00 88° ESE 23:49:14 10° NNE
Cosmos 2181 Rocket 4.1 23:40:23 10° N 23:46:35 67° E 23:49:34 32° SSE
Cosmos 1825 3.3 23:47:12 26° E 23:47:20 26° E 23:50:14 10° NNE
Cosmos 2333 Rocket 4.3 23:48:04 10° WNW 23:50:53 14° W 23:53:07 11° WSW
Cosmos 1408 3.5 23:54:41 28° W 23:54:49 28° WNW 23:57:29 10° NNW
